Regional Weather Roundup
Issued by NWS

Home | Current Version | Previous Version | Graphics & Text | Print | Product List | Glossary On
Versions: 1 2 3 4 5 6 7 8 9 10 11 12 13 14 15 16 17 18 19 20 21 22 23 24 25 26 27 28 29 30 31 32 33 34 35 36 37 38 39 40 41 42 43 44 45 46 47 48 49 50
000
ASUS45 KBOU 101107
RWRCO

WEATHER ROUNDUP FOR COLORADO
NATIONAL WEATHER SERVICE DENVER/BOULDER CO
400 AM MST SAT DEC 10 2016

NOTE: "FAIR" INDICATES FEW OR NO CLOUDS BELOW 12000 FEET WITH NO
SIGNIFICANT WEATHER AND/OR OBSTRUCTIONS TO VISIBILITY.

COZ001>005-013-030-031-101200-
...NORTHWEST COLORADO...

CITY           SKY/WX    TMP DP  RH WIND       PRES   REMARKS
CRAIG          CLOUDY    27  22  81 E7        30.07F WCI  19
HAYDEN         CLOUDY    27  19  74 S5        30.06F WCI  21
MEEKER         FAIR      39  25  57 SW17      30.08F
MOUNT WERNER   NOT AVBL
STEAMBOAT SPGS CLOUDY    21  20  95 CALM      30.07F
WALDEN           N/A     30  19  64 S9        30.05F WCI  22
$$

COZ006>008-011-101200-
...WEST CENTRAL VALLEYS...

CITY           SKY/WX    TMP DP  RH WIND       PRES   REMARKS
GRAND JUNCTION FAIR      24  19  81 CALM      30.18F
MONTROSE       FAIR      23  21  92 SE7       30.21F WCI  15
EAGLE          FAIR      21  19  92 E6        30.16F WCI  13
RIFLE          FAIR      22  21  96 CALM      30.19F
DELTA          FAIR      25  19  79 CALM      30.19F
NUCLA          FAIR      28  23  80 E10       30.24F WCI  19
$$

COZ017>023-064>068-101200-
...SOUTHWEST COLORADO...

CITY           SKY/WX    TMP DP  RH WIND       PRES   REMARKS
DURANGO        FAIR      17  13  84 NE3       30.25F
CORTEZ         FAIR      22  19  89 E6        30.24S WCI  14
PAGOSA SPRINGS FAIR      18  17  95 CALM      30.26F
TELLURIDE      FAIR      32  17  53 SE6       30.26S WCI  26
WOLF CREEK PAS FAIR      18  18 100 SW17G23   30.30F WCI   2
$$

COZ009-010-012-014-032>034-037-058>063-101200-
...CENTRAL COLORADO...

CITY           SKY/WX    TMP DP  RH WIND       PRES   REMARKS
ASPEN          FAIR      25  21  85 S9        30.13F WCI  15
BUENA VISTA    FAIR      38  16  39 W8        30.10F
COPPER MTN     LGT SNOW  28  14  54 W29G37    30.17F WCI  13
BERTHOUD PASS  CLOUDY    19   9  63 W29       30.11F HAZE    WCI   1
COTTONWOOD PAS FAIR      36  14  41 W14G29    30.09F
GUNNISON       CLOUDY     7   5  91 CALM      30.27R
KREMMLING      FAIR      41  23  48 SW5       30.08F
LEADVILLE      FAIR      27  15  61 N14       30.13F WCI  16
MONARCH PASS   FAIR      21  16  79 W36       30.31F WCI   2
SALIDA         FAIR      40  18  41 SW13G23   30.17S
SUNLIGHT       CLOUDY    23  19  86 SW17G28   30.20F WCI   9
WILKERSON PASS FAIR      27  14  59 W15G29    30.09F WCI  15
$$

COZ069>075-101200-
...SAN LUIS VALLEY/SANGRE DE CRISTO MOUNTAINS...

CITY           SKY/WX    TMP DP  RH WIND       PRES   REMARKS
ALAMOSA        FAIR       7   5  91 NW3       30.20F
LA VETA PASS   FAIR      27  19  74 NE47G58   30.10F WCI   7
SAGUACHE       FAIR      14  12  92 N5        30.21F WCI   6
$$

COZ035-036-038>040-101200-
...NORTHERN COLORADO FRONT RANGE...

CITY           SKY/WX    TMP DP  RH WIND       PRES   REMARKS
DENVER INTL AP FAIR      16  12  84 CALM      29.99F FOG
DMNS CITY PARK   N/A     21  17  86 NE2G13    29.99F
AURORA         PTCLDY    20  19  97 NE7       29.98F WCI  11
FRONT RANGE AP FAIR      21  19  93 E6        29.97F WCI  14
ERIE MUNI ARPT FAIR      14  12  93 CALM      30.00F FOG
BOULDER MUN AP FAIR      23  19  86 CALM      29.98F
CENTENNIAL     FAIR      31  21  66 VRB3      29.97S
BROOMFIELD     FAIR      23  19  86 CALM      29.97F FOG
FORT COLLINS   FAIR      14  10  85 CALM      30.00F
LONGMONT       FAIR      16  13  87 CALM      30.01F
$$

COZ041-046-047-076>085-087-088-101200-
...PIKES PEAK/PALMER DIVIDE AND SOUTHERN FOOTHILLS...

CITY           SKY/WX    TMP DP  RH WIND       PRES   REMARKS
COLO. SPRINGS  FAIR      26  17  68 N7        30.02F WCI  18
A. F. ACADEMY  FAIR      24  16  74 N5        30.01F WCI  18
SCHRIEVER AFB  NOT AVBL
ELLICOTT       LGT RAIN N/A N/A N/A NE3       30.01F
FALCON         FAIR      31  18  58 NW5       30.03S WCI  26
FORT CARSON    FAIR      23  16  75 NW10      30.00F WCI  12
LIMON          FAIR      13  11  92 N3        30.00F
MONUMENT HILL  FAIR      32  18  55 S12       30.01F WCI  23
TRINIDAD       FAIR      36  17  46 SW9G18    30.05F
$$

COZ042>045-048>051-090-091-101200-
...NORTHEAST COLORADO...

CITY           SKY/WX    TMP DP  RH WIND       PRES   REMARKS
GREELEY ARPT   FAIR      12  10  92 VRB3      30.01F
AKRON          FAIR      20  16  84 S5        30.00F WCI  13
BURLINGTON     FAIR      22  17  81 SW10      30.03F WCI  11
WRAY           NOT AVBL
STERLING       FAIR      16  14  93 N5        30.02F WCI   9
HOLYOKE        FAIR      19  16  86 E7        30.06F WCI  10
FORT MORGAN    FAIR      15  12  86 N6        30.00F WCI   7
$$

COZ086-089-092>099-101200-
...SOUTHEAST COLORADO...

CITY           SKY/WX    TMP DP  RH WIND       PRES   REMARKS
PUEBLO         FAIR      16  10  77 CALM      30.03F
LA JUNTA       FAIR      20  12  71 CALM      30.06F
LAMAR          FAIR      16  12  84 SW7       30.06F WCI   6
SPRINGFIELD      N/A     19  17  92 SW7       30.03F WCI  10
$$



USA.gov is the U.S. government's official web portal to all federal, state and local government web resources and services.